Volver al catálogo

COSMOS 970 DEB

ActivoLEO
NORAD 18998·DEBRIS·🇷🇺 Russia

Lanzado Dec 21, 1977 desde Baikonur Cosmodrome

Loading…

Próximos Pases (próximas 24 horas)

TLE

EnvejeciendoSource: Space-Track

Época: Sep 12, 2026, 06:29 UTC

1 18998U 77121BS  26255.27050123  .00000295  00000-0  35743-3 0  9994
2 18998  65.8253 190.6862 0116843  78.0001  72.4295 13.77654285952651

Sigue COSMOS 970 DEB en tiempo real con AllMySat

Download on the App Store